EDT,Max TemperatureF,Mean TemperatureF,Min TemperatureF,Max Dew PointF,MeanDew PointF,Min DewpointF,Max Humidity, Mean Humidity, Min Humidity, Max Sea Level PressureIn, Mean Sea Level PressureIn, Min Sea Level PressureIn, Max VisibilityMiles, Mean VisibilityMiles, Min VisibilityMiles, Max Wind SpeedMPH, Mean Wind SpeedMPH, Max Gust SpeedMPH,PrecipitationIn, CloudCover, Events, WindDirDegrees
2012-10-1,63,58,53,56,50,44,93,78,62,29.93,29.86,29.80,10,8,2,17,6,31,0.49,7,Rain,119
2012-10-2,77,68,59,64,59,54,87,74,60,29.94,29.84,29.77,10,9,2,17,6,26,0.54,6,Rain,144
2012-10-3,77,68,59,59,56,52,87,67,46,30.19,30.08,29.94,10,10,10,9,3,14,0.00,1,,254
2012-10-4,72,64,56,58,53,47,90,67,44,30.32,30.23,30.15,10,10,10,14,5,21,0.00,3,,272
2012-10-5,75,64,52,52,50,48,83,62,41,30.22,30.12,29.99,10,10,10,12,5,17,0.00,1,,253
2012-10-6,62,54,46,55,48,41,86,78,69,30.11,30.02,29.91,10,8,0,17,6,22,0.02,6,Fog-Rain,277
2012-10-7,47,43,39,43,40,36,92,84,76,30.18,30.10,30.04,10,7,0,13,2,17,0.35,7,Fog-Rain,290
2012-10-8,45,42,39,40,38,36,92,81,70,30.22,30.17,30.14,10,5,0,9,2,15,0.06,7,Fog-Rain,91
2012-10-9,54,48,42,43,41,39,89,78,66,30.19,30.13,30.05,10,6,0,10,2,17,0.00,7,Fog,89
2012-10-10,55,48,40,46,42,36,92,79,66,30.18,30.07,30.02,10,9,0,17,9,29,0.00,6,Fog,269
2012-10-11,67,51,34,35,31,26,89,56,22,30.29,30.23,30.18,10,10,10,14,4,20,0.00,0,,253
2012-10-12,64,54,43,38,36,34,70,52,34,30.35,30.26,30.19,10,10,10,14,5,17,0.00,0,,296
2012-10-13,64,54,43,42,38,33,76,59,42,30.39,30.31,30.23,10,10,10,14,6,21,0.00,0,,159
2012-10-14,74,62,50,52,47,42,71,58,44,30.19,30.08,29.91,10,10,10,17,5,23,0.01,1,,177
2012-10-15,64,54,44,54,48,37,86,65,44,29.93,29.85,29.76,10,10,8,23,8,30,0.12,6,Rain,275
2012-10-16,61,51,41,40,34,31,82,57,32,30.00,29.94,29.90,10,10,10,16,5,21,0.00,0,,276
2012-10-17,69,56,43,42,38,32,70,48,26,29.96,29.89,29.78,10,10,10,21,4,30,0.00,0,,153
2012-10-18,71,61,50,52,47,39,89,67,45,29.83,29.76,29.67,10,8,2,22,8,31,0.24,4,Rain-Thunderstorm,177
2012-10-19,64,56,47,48,36,26,93,59,25,29.82,29.73,29.64,10,9,2,20,8,28,0.00,3,,237
2012-10-20,51,47,42,36,36,34,70,62,54,29.99,29.84,29.74,10,10,10,15,7,23,0.00,7,,280
2012-10-21,62,51,39,37,35,34,85,61,36,30.18,30.12,30.01,10,10,10,14,6,17,0.00,2,,263
2012-10-22,74,61,47,44,42,37,76,55,33,30.23,30.17,30.14,10,10,10,12,5,17,0.00,0,,259
2012-10-23,77,67,56,49,46,44,62,48,33,30.17,30.12,30.08,10,10,10,15,4,20,0.00,0,,254
2012-10-24,77,67,56,47,43,39,62,45,27,30.20,30.12,30.08,10,10,7,10,3,14,0.00,0,,253
2012-10-25,78,66,54,51,43,36,71,47,22,30.14,30.09,30.04,10,10,10,14,6,21,0.00,0,,151
2012-10-26,75,66,57,54,51,47,80,61,41,30.10,30.02,29.96,10,10,10,15,5,23,0.00,2,,123
2012-10-27,61,53,45,54,48,43,93,83,72,29.99,29.92,29.87,10,9,5,13,4,17,0.05,8,Rain,328
2012-10-28,46,40,34,43,39,30,92,88,83,29.94,29.85,29.78,10,5,1,15,7,21,0.15,8,Rain-Snow,303
2012-10-29,34,33,31,31,29,27,89,86,82,29.82,29.68,29.44,5,2,0,29,14,39,0.23,8,Fog-Snow,294
2012-10-30,34,32,30,30,27,26,85,80,75,29.61,29.42,29.33,10,2,1,26,18,41,0.09,8,Snow,280
2012-10-31,36,35,34,32,31,29,89,86,82,29.79,29.70,29.60,10,5,1,21,12,30,0.01,8,Snow,276